Home > Time Zones > World Clock > Weather > Macau > Macau > Past weeks

Flag for Macau Weather past 2 weeks in Macau, Macau

Now
88 °F

Scattered clouds.


Feels Like: 105 °F
Forecast: 81 / 89 °F
Wind: 9 mph from South

Location: Taipa

Current Time: Jul 4, 2015 at 11:48:49 AM

Latest Report: Jul 4, 2015 at 11:00 AM


Visibility: N/A

Pressure: 29.62 "Hg

Humidity: 79%

Dew point: 81 °F

Location of MacauLocation

Historic Weather in Macau — Graph

°F

Macau temperature yesterday

Maximum temperature yesterday: 90 °F (at 10:30 AM)
Minimum temperature yesterday: 84 °F (at 12:00 AM)
Average temperature yesterday: 86 °F

Past Weeks' High & Low Weather Summary

 TemperatureHumidityPressure
High90 °F (Jun 19, 11:00 AM)100% (Jun 22, 4:30 AM)29.83 "Hg (Jun 22, 4:30 AM)
Low77 °F (Jun 23, 7:30 PM)71% (Jun 19, 11:00 AM)29.53 "Hg (Jul 2, 4:30 PM)
Average85 °F83%29.67 "Hg
* Reported Jun 19 10:00 AM — Jul 4 10:00 AM, Macau, Weather by CustomWeather, © 2015

Note: Actual official high and low records may vary slightly from our data, if they occured in-between our weather recording intervals... More about our weather records

Advertising

Macau weather history for previous 24 hours

 ConditionsComfort  
Time TempWeatherWind HumidityBarometerVisibility
10:00 AM
Sat, Jul 4
88 °FPassing clouds.9 mph79%29.62 "HgN/A
9:30 AM88 °FPassing clouds.9 mph79%29.62 "HgN/A
9:00 AM88 °FPassing clouds.8 mph79%29.62 "HgN/A
8:30 AM86 °FPassing clouds.7 mph84%29.62 "HgN/A
8:00 AM86 °FPassing clouds.6 mph84%29.59 "HgN/A
7:30 AM86 °FPassing clouds.8 mph84%29.59 "HgN/A
7:00 AM84 °FPassing clouds.8 mph89%29.59 "HgN/A
6:30 AM84 °FPassing clouds.8 mph89%29.59 "HgN/A
6:00 AM84 °FPassing clouds.7 mph84%29.56 "HgN/A
5:30 AM84 °FPassing clouds.8 mph89%29.59 "HgN/A
5:00 AM84 °FPassing clouds.9 mph89%29.59 "HgN/A
4:30 AM84 °FPassing clouds.12 mph84%29.56 "HgN/A
4:00 AM84 °FPassing clouds.13 mph89%29.56 "HgN/A
3:30 AM84 °FPassing clouds.14 mph89%29.56 "HgN/A
3:00 AM84 °FPassing clouds.13 mph89%29.56 "HgN/A
2:30 AM84 °FPassing clouds.14 mph89%29.56 "HgN/A
2:00 AM84 °FPassing clouds.15 mph89%29.59 "HgN/A
1:30 AM84 °FPassing clouds.16 mph89%29.59 "HgN/A
1:00 AM84 °FPassing clouds.14 mph89%29.59 "HgN/A
12:30 AM84 °FPassing clouds.10 mph89%29.59 "HgN/A
12:00 AM84 °FPassing clouds.12 mph89%29.59 "HgN/A
11:30 PM
Fri, Jul 3
86 °FPassing clouds.12 mph84%29.59 "HgN/A
11:00 PM86 °FPassing clouds.10 mph84%29.59 "HgN/A
10:30 PM86 °FPassing clouds.12 mph84%29.59 "HgN/A
10:00 PM86 °FPassing clouds.13 mph84%29.56 "HgN/A
9:30 PM86 °FPassing clouds.12 mph84%29.56 "HgN/A
9:00 PM86 °FPassing clouds.12 mph84%29.56 "HgN/A
8:30 PM86 °FPassing clouds.12 mph84%29.56 "HgN/A
8:00 PM86 °FPassing clouds.12 mph84%29.56 "HgN/A
7:30 PM86 °FPassing clouds.12 mph84%29.56 "HgN/A
7:00 PM86 °FScattered clouds.12 mph84%29.56 "HgN/A
6:30 PM86 °FPassing clouds.12 mph84%29.53 "HgN/A
6:00 PM88 °FPassing clouds.12 mph79%29.56 "HgN/A
5:30 PM88 °FPassing clouds.13 mph79%29.56 "HgN/A
5:00 PM88 °FPassing clouds.14 mph79%29.56 "HgN/A
4:30 PM88 °FPassing clouds.14 mph79%29.56 "HgN/A
4:00 PM88 °FPassing clouds.14 mph79%29.56 "HgN/A
3:30 PM90 °FScattered clouds.14 mph75%29.56 "HgN/A
3:00 PM88 °FScattered clouds.14 mph79%29.59 "HgN/A
2:30 PM90 °FScattered clouds.14 mph75%29.59 "HgN/A
1:30 PM90 °FScattered clouds.15 mph75%29.62 "HgN/A
1:00 PM90 °FScattered clouds.15 mph75%29.62 "HgN/A
12:30 PM90 °FScattered clouds.14 mph79%29.62 "HgN/A
12:00 PM88 °FScattered clouds.15 mph79%29.62 "HgN/A
11:30 AM88 °FScattered clouds.13 mph79%29.62 "HgN/A
11:00 AM88 °FScattered clouds.14 mph79%29.62 "HgN/A
Weather by CustomWeather, © 2015

See weather overviewHow to use our weather pages